When you browse on this site, cookies collect data to enhance your experience and personalize the content and advertising you see.
Visit our Privacy Policy to learn more. By continuing to use the site, you agree to this use of cookies and data.
  • In Lithuania
  • List of Countries
  • For 7 days
  • Water Temperature
  • Satellite Maps
  • Weather Map
  • Weather Widgets
  • user-avatar
    Login

    Hourly Weather Arpachin

    Today, 26 March, Tuesday

    Time Temperature Precipitation Wind Pressure Humidity
    00:00 +5°C° 0 mm 2 mps 761 mmHg 72%
    01:00 +5°C° 0 mm 2 mps 761 mmHg 73%
    02:00 +5°C° 0 mm 2 mps 761 mmHg 74%
    03:00 +4°C° 0 mm 3 mps 761 mmHg 75%
    04:00 +3°C° 0 mm 3 mps 761 mmHg 77%
    05:00 +3°C° 0 mm 3 mps 761 mmHg 79%
    06:00 +4°C° 0 mm 2 mps 760 mmHg 81%
    07:00 +4°C° 0 mm 3 mps 761 mmHg 75%
    08:00 +7°C° 0 mm 3 mps 761 mmHg 70%
    09:00 +7°C° 0 mm 4 mps 761 mmHg 64%
    10:00 +10°C° 0 mm 4 mps 761 mmHg 57%
    11:00 +11°C° 0 mm 4 mps 760 mmHg 50%
    12:00 +13°C° 0 mm 4 mps 760 mmHg 43%
    13:00 +13°C° 0 mm 4 mps 760 mmHg 41%
    14:00 +14°C° 0 mm 3 mps 760 mmHg 39%
    15:00 +14°C° 0 mm 3 mps 760 mmHg 37%
    16:00 +14°C° 0 mm 3 mps 759 mmHg 40%
    17:00 +14°C° 0 mm 2 mps 759 mmHg 44%
    18:00 +14°C° 0 mm 1 mps 759 mmHg 47%
    19:00 +13°C° 0 mm 1 mps 759 mmHg 50%
    20:00 +12°C° 0 mm 1 mps 759 mmHg 53%
    21:00 +11°C° 0 mm 1 mps 759 mmHg 55%
    22:00 +10°C° 0 mm 1 mps 759 mmHg 57%
    23:00 +10°C° 0 mm 1 mps 759 mmHg 59%

    Tomorrow, 27 March, Wednesday

    Time Temperature Precipitation Wind Pressure Humidity
    00:00 +9°C° 0 mm 1 mps 759 mmHg 61%
    01:00 +9°C° 0 mm 1 mps 759 mmHg 63%
    02:00 +8°C° 0 mm 1 mps 759 mmHg 65%
    03:00 +8°C° 0 mm 1 mps 758 mmHg 67%
    04:00 +7°C° 0 mm 1 mps 758 mmHg 69%
    05:00 +7°C° 0 mm 1 mps 758 mmHg 70%
    06:00 +6°C° 0 mm 1 mps 758 mmHg 71%
    07:00 +8°C° 0 mm 1 mps 758 mmHg 67%
    08:00 +8°C° 0 mm 2 mps 758 mmHg 63%
    09:00 +9°C° 0 mm 2 mps 758 mmHg 59%
    10:00 +10°C° 0 mm 3 mps 758 mmHg 58%
    11:00 +11°C° 0 mm 4 mps 759 mmHg 58%
    12:00 +13°C° 0 mm 5 mps 759 mmHg 57%
    13:00 +12°C° 0.1 mm 5 mps 759 mmHg 61%
    14:00 +10°C° 0.1 mm 5 mps 758 mmHg 66%
    15:00 +9°C° 0.1 mm 5 mps 758 mmHg 71%
    16:00 +10°C° 0 mm 4 mps 759 mmHg 69%
    17:00 +10°C° 0 mm 3 mps 759 mmHg 67%
    18:00 +10°C° 0 mm 2 mps 759 mmHg 65%
    19:00 +9°C° 0.2 mm 2 mps 759 mmHg 69%
    20:00 +8°C° 0.2 mm 3 mps 760 mmHg 73%
    21:00 +7°C° 0.2 mm 3 mps 760 mmHg 76%
    22:00 +6°C° 0 mm 4 mps 760 mmHg 75%
    23:00 +5°C° 0 mm 4 mps 760 mmHg 74%

    Day after tomorrow, 28 March, Thursday

    Time Temperature Precipitation Wind Pressure Humidity
    00:00 +5°C° 0 mm 5 mps 760 mmHg 72%
    01:00 +3°C° 0 mm 5 mps 761 mmHg 73%
    02:00 +3°C° 0 mm 5 mps 761 mmHg 74%
    03:00 +2°C° 0 mm 5 mps 761 mmHg 74%
    04:00 +2°C° 0 mm 5 mps 761 mmHg 74%
    05:00 +2°C° 0 mm 6 mps 761 mmHg 74%
    06:00 +2°C° 0 mm 6 mps 762 mmHg 75%
    07:00 +2°C° 0 mm 6 mps 762 mmHg 74%
    08:00 +2°C° 0 mm 6 mps 763 mmHg 73%
    09:00 +3°C° 0 mm 6 mps 764 mmHg 73%
    10:00 +5°C° 0 mm 5 mps 764 mmHg 68%
    11:00 +5°C° 0 mm 5 mps 764 mmHg 64%
    12:00 +6°C° 0 mm 4 mps 765 mmHg 59%
    13:00 +6°C° 0 mm 4 mps 765 mmHg 54%
    14:00 +7°C° 0 mm 4 mps 765 mmHg 49%
    15:00 +7°C° 0 mm 4 mps 765 mmHg 44%
    16:00 +8°C° 0 mm 3 mps 765 mmHg 43%
    17:00 +7°C° 0 mm 3 mps 766 mmHg 42%
    18:00 +7°C° 0 mm 3 mps 766 mmHg 41%
    19:00 +6°C° 0 mm 2 mps 766 mmHg 44%
    20:00 +6°C° 0 mm 2 mps 767 mmHg 47%
    21:00 +5°C° 0 mm 2 mps 767 mmHg 50%
    22:00 +4°C° 0 mm 2 mps 768 mmHg 53%
    23:00 +4°C° 0 mm 2 mps 768 mmHg 56%

    29 March, Friday

    Time Temperature Precipitation Wind Pressure Humidity
    00:00 +4°C° 0 mm 2 mps 768 mmHg 59%
    01:00 +3°C° 0 mm 2 mps 768 mmHg 61%
    02:00 +3°C° 0 mm 2 mps 768 mmHg 64%
    03:00 +2°C° 0 mm 2 mps 769 mmHg 66%
    04:00 +2°C° 0 mm 2 mps 769 mmHg 67%
    05:00 +2°C° 0 mm 2 mps 769 mmHg 68%
    06:00 +1°C° 0 mm 2 mps 769 mmHg 70%
    07:00 +2°C° 0 mm 2 mps 769 mmHg 63%
    08:00 +4°C° 0 mm 2 mps 769 mmHg 56%
    09:00 +5°C° 0 mm 2 mps 769 mmHg 49%
    10:00 +5°C° 0 mm 3 mps 769 mmHg 45%
    11:00 +7°C° 0 mm 3 mps 769 mmHg 41%
    12:00 +7°C° 0 mm 4 mps 768 mmHg 36%
    13:00 +7°C° 0 mm 4 mps 768 mmHg 36%
    14:00 +8°C° 0 mm 5 mps 767 mmHg 36%
    15:00 +8°C° 0 mm 5 mps 767 mmHg 36%
    16:00 +7°C° 0 mm 4 mps 767 mmHg 38%
    17:00 +7°C° 0 mm 4 mps 767 mmHg 39%
    18:00 +8°C° 0 mm 3 mps 766 mmHg 41%
    19:00 +7°C° 0 mm 3 mps 767 mmHg 45%
    20:00 +5°C° 0 mm 3 mps 767 mmHg 48%
    21:00 +4°C° 0 mm 3 mps 767 mmHg 51%
    22:00 +4°C° 0 mm 3 mps 767 mmHg 55%
    23:00 +4°C° 0 mm 3 mps 766 mmHg 59%

    30 March, Saturday

    Time Temperature Precipitation Wind Pressure Humidity
    00:00 +3°C° 0 mm 3 mps 766 mmHg 62%
    01:00 +3°C° 0 mm 3 mps 766 mmHg 62%
    02:00 +3°C° 0 mm 4 mps 766 mmHg 62%
    03:00 +3°C° 0 mm 4 mps 766 mmHg 62%
    04:00 +3°C° 0 mm 4 mps 766 mmHg 64%
    05:00 +3°C° 0 mm 3 mps 766 mmHg 65%
    06:00 +3°C° 0 mm 3 mps 766 mmHg 67%
    07:00 +4°C° 0 mm 3 mps 766 mmHg 65%
    08:00 +5°C° 0 mm 3 mps 766 mmHg 64%
    09:00 +8°C° 0 mm 3 mps 766 mmHg 63%
    10:00 +9°C° 0 mm 3 mps 766 mmHg 59%
    11:00 +10°C° 0 mm 3 mps 766 mmHg 55%
    12:00 +12°C° 0 mm 3 mps 766 mmHg 51%
    13:00 +12°C° 0 mm 3 mps 765 mmHg 51%
    14:00 +13°C° 0 mm 3 mps 765 mmHg 50%
    15:00 +13°C° 0 mm 3 mps 765 mmHg 50%
    16:00 +13°C° 0 mm 3 mps 765 mmHg 52%
    17:00 +13°C° 0 mm 2 mps 765 mmHg 54%
    18:00 +13°C° 0 mm 2 mps 764 mmHg 56%
    19:00 +12°C° 0 mm 2 mps 765 mmHg 59%
    20:00 +10°C° 0 mm 2 mps 765 mmHg 62%
    21:00 +9°C° 0 mm 2 mps 765 mmHg 66%
    22:00 +9°C° 0 mm 2 mps 765 mmHg 67%
    23:00 +8°C° 0 mm 2 mps 765 mmHg 68%

    31 March, Sunday

    Time Temperature Precipitation Wind Pressure Humidity
    00:00 +8°C° 0 mm 2 mps 765 mmHg 70%
    01:00 +8°C° 0 mm 1 mps 764 mmHg 71%
    02:00 +8°C° 0 mm 1 mps 764 mmHg 72%
    03:00 +8°C° 0 mm 1 mps 764 mmHg 73%
    04:00 +7°C° 0 mm 1 mps 764 mmHg 74%
    05:00 +7°C° 0 mm 1 mps 763 mmHg 75%
    06:00 +7°C° 0 mm 1 mps 763 mmHg 75%
    07:00 +8°C° 0 mm 1 mps 763 mmHg 70%
    08:00 +10°C° 0 mm 1 mps 763 mmHg 64%
    09:00 +10°C° 0 mm 2 mps 763 mmHg 59%
    10:00 +13°C° 0 mm 2 mps 762 mmHg 53%
    11:00 +14°C° 0 mm 2 mps 762 mmHg 47%
    12:00 +16°C° 0 mm 3 mps 761 mmHg 42%
    13:00 +16°C° 0 mm 3 mps 760 mmHg 39%
    14:00 +17°C° 0 mm 4 mps 760 mmHg 37%
    15:00 +17°C° 0 mm 4 mps 759 mmHg 34%
    16:00 +17°C° 0 mm 4 mps 758 mmHg 37%
    17:00 +16°C° 0 mm 3 mps 758 mmHg 40%
    18:00 +16°C° 0 mm 3 mps 758 mmHg 42%
    19:00 +13°C° 0 mm 3 mps 758 mmHg 46%
    20:00 +12°C° 0 mm 3 mps 758 mmHg 49%
    21:00 +11°C° 0 mm 3 mps 758 mmHg 53%
    22:00 +10°C° 0 mm 3 mps 757 mmHg 55%
    23:00 +9°C° 0 mm 3 mps 757 mmHg 58%
    Show more